Location: Campoleone
(41.6500°N, 12.6167°E)
Time: 21:09:04
(UTC+00:00)

Daily predictions for brighter satellites

Satellite Brightness Start Highest point End
(mag) Time Altitude Azimuth Time Altitude Azimuth Time Altitude Azimuth
ARGOS 4.3 17:24:08 10° ESE 17:28:21 24° ENE 17:32:35 10° NNE
NOSS 3-2 (A) 4.3 17:23:12 10° NNW 17:30:36 55° NE 17:38:52 10° SE
CZ-2C R/B 4.2 17:30:34 10° NE 17:33:49 16° E 17:37:03 10° SE
Cosmos 2151 Rocket 4.3 17:33:34 10° SSE 17:37:33 33° E 17:41:35 10° NNE
Meteor 1-21 4.4 17:32:47 10° NNW 17:38:24 80° W 17:43:59 10° S
Lacrosse 5 rocket 4.1 17:38:46 10° NNW 17:39:52 11° N 17:40:58 10° NNE
Cosmos 1975 Rocket 3.2 17:37:19 10° N 17:41:39 78° W 17:45:57 10° S
HJ-1C 4.2 17:40:08 10° SE 17:43:01 29° ENE 17:45:57 10° N
Shenzhou-11 Module 2.1 17:48:42 10° SW 17:50:35 29° SSE 17:51:33 19° ESE
COSMO-SKYMED 1 3.9 17:47:02 10° N 17:51:11 44° WNW 17:55:18 10° SW
Ariane Rocket 4.2 17:47:53 11° ESE 17:51:33 22° ENE 17:55:23 10° NNE
H-2A R/B 2.2 17:47:29 10° SE 17:52:15 48° ENE 17:57:10 10° N
Nadezhda 4 Rocket 4.3 17:48:42 10° N 17:54:33 45° ENE 18:00:22 10° SSE
Exosat Rocket 3.9 17:51:17 10° S 17:56:34 42° ESE 18:01:15 10° NE
Cosmos 2263 Rocket 4.5 17:53:17 10° WSW 17:57:51 25° NW 18:02:28 10° N
USA 116 3.7 17:57:41 10° NNE 18:01:27 88° E 18:05:42 10° SSW
Cosmos 1844 Rocket 2.6 17:56:21 10° SSW 18:01:54 82° ESE 18:07:31 10° NNE
Cosmos 2278 Rocket 3.9 18:02:58 10° SE 18:10:00 - ENE 18:03:58 13° SE
Cosmos 1707 3.0 18:02:54 10° NNW 18:06:44 69° W 18:10:32 10° S
Cosmos 1626 4.1 18:06:05 10° NE 18:07:28 14° ENE 18:07:28 14° ENE
CZ-2C R/B 3.1 18:05:55 10° WSW 18:08:32 18° SSW 18:10:59 10° SSE
NOSS 3-2 (C) 4.2 18:01:23 10° NNW 18:08:53 60° NE 18:16:08 15° SE
Cosmos 1844 3.6 18:03:40 10° SSW 18:09:21 75° ESE 18:14:59 10° NNE
Cosmos 2034 Rocket 4.0 18:03:04 10° S 18:09:21 67° E 18:15:37 10° NNE
NOSS 3-4 (A) 3.6 18:05:21 10° S 18:10:53 46° ESE 18:16:43 10° NE
NOSS 3-4 (C) 3.6 18:05:28 10° S 18:11:00 45° ESE 18:16:49 10° NE
USA 186 2.9 18:11:03 24° E 18:11:24 25° ENE 18:14:09 10° NNE
ISS -1.4 18:09:26 10° WNW 18:11:54 18° NNW 18:14:21 10° NNE
Meteor 2-5 Rocket 4.4 18:09:33 10° N 18:14:44 35° ENE 18:18:15 18° SE
Cosmos 1300 Rocket 4.1 18:13:52 10° SSW 18:18:13 62° W 18:22:37 10° N
Okean 1 Rocket 3.3 18:17:08 10° SSE 18:21:24 45° E 18:25:41 10° NNE
Resurs 01 Rocket 3.7 18:25:52 12° NE 18:25:52 12° NE 18:27:01 10° NE
CENTAUR R/B 3.2 18:19:52 10° NNW 18:28:02 72° NE 18:34:46 19° SE
Cosmos 1833 Rocket 4.0 18:24:40 10° N 18:29:02 22° NE 18:30:12 21° ENE
CSL-04 Rocket 4.1 18:24:56 10° S 18:30:19 66° WSW 18:35:49 10° NNW
Cosmos 1766 3.4 18:28:40 10° S 18:32:27 49° E 18:36:16 10° NNE
Okean 2 Rocket 4.4 18:28:34 10° SSW 18:32:49 42° WNW 18:37:04 10° N
YAOGAN 1 4.3 18:29:13 10° SSW 18:33:07 33° W 18:37:04 10° NNW
ATLAS 2AS CENTAUR R/B 3.0 18:25:29 10° SSW 18:33:16 64° ESE 18:41:05 10° NE
Cosmos 1025 Rocket 4.0 18:31:54 10° NNW 18:36:09 50° W 18:40:24 10° SSW
Cosmos 1634 Rocket 4.1 18:31:15 10° SSE 18:37:07 48° E 18:43:02 10° NNE
ATLAS 3B R/B 3.6 18:33:53 10° NNW 18:40:01 33° NE 18:42:34 26° ENE
SPOT 3 Rocket 4.5 18:40:10 28° ENE 18:40:21 28° ENE 18:44:41 10° N
Abrixas rocket 2.7 18:39:49 10° NW 18:42:11 43° N 18:42:11 43° N
CREW DRAGON DEMO-1 DEB 3.4 18:41:40 10° NW 18:44:16 48° N 18:44:16 48° N
Cosmos 1125 Rocket 4.2 18:40:29 10° SW 18:45:41 57° WNW 18:50:57 10° NNE
Cosmos 1536 Rocket 4.3 18:41:35 10° NNW 18:45:57 54° W 18:50:18 10° S
SJ-6B 2.7 18:48:31 57° ENE 18:48:31 57° ENE 18:52:03 10° N
CZ-4 R/B 4.4 18:48:04 10° SW 18:50:54 17° W 18:53:43 10° NW
Cosmos 2285 Rocket 4.4 18:50:05 10° SSW 18:56:20 66° WNW 19:02:40 10° NNE
Cosmos 2195 Rocket 4.3 18:50:12 10° N 18:56:27 75° E 19:00:07 26° SSE
USA 238 DEB 4.4 18:49:58 10° NW 18:57:06 58° WSW 19:03:15 15° SSE
USA 238 4.4 18:50:05 10° NW 18:57:12 58° WSW 19:03:18 16° SSE
Cosmos 1627 Rocket 4.4 18:51:41 10° N 18:58:05 70° E 19:01:23 30° SSE
Cosmos 1674 3.4 18:54:33 10° NNW 18:58:18 52° W 19:00:17 25° SSW
Cosmos 2026 Rocket 4.0 18:52:59 10° N 18:59:20 68° E 19:02:16 34° SSE
Cosmos 1092 Rocket 3.9 18:53:18 10° N 18:59:31 88° E 19:04:17 18° S
Cosmos 1428 Rocket 4.3 19:01:38 10° N 19:07:54 74° E 19:10:06 42° SSE
ARGOS 4.1 19:03:11 10° S 19:08:18 46° W 19:13:28 10° NNW
Cosmos 1340 Rocket 4.4 19:15:11 25° N 19:15:11 25° N 19:16:59 10° N
Cosmos 2279 Rocket 4.0 19:12:58 55° ESE 19:13:37 58° E 19:19:45 10° NNE
CZ-2C R/B 2.9 19:09:01 10° N 19:14:35 72° WNW 19:20:10 10° SSW
Cosmos 1733 3.9 19:13:48 41° SW 19:14:42 52° W 19:18:27 10° N
MOS 1 4.3 19:13:05 35° S 19:15:35 79° WSW 19:21:20 10° NNW
Lacrosse 5 rocket 3.8 19:18:04 10° NNW 19:20:43 15° NNE 19:20:43 15° NNE
Cosmos 2082 Rocket 3.3 19:17:14 10° N 19:21:17 30° NE 19:21:17 30° NE
DMSP B5D2-2 4.4 19:19:09 10° N 19:24:24 67° WNW 19:29:37 10° SSW
BREEZE-M DEB (TANK) 4.1 19:20:42 10° WNW 19:24:38 55° SSW 19:27:36 38° SSE
OBJECT-B 3.6 19:28:48 14° NNW 19:28:48 14° NNW 19:29:24 10° NNW
Cosmos 2142 Rocket 4.3 19:24:37 37° S 19:27:20 86° E 19:33:35 10° N
Ariane Rocket 3.8 19:28:06 30° SSW 19:30:10 47° W 19:35:04 10° NNW
H-2A R/B 4.4 19:28:23 10° SW 19:31:57 20° W 19:35:37 10° NW
Milstar 3 Cent rocket 3.9 19:29:01 10° SW 19:32:39 20° SSW 19:32:39 20° SSW
USA 234 4.0 19:38:14 37° S 19:38:14 37° S 19:42:09 10° SSW
Cosmos 1626 4.4 19:40:09 10° NNW 19:42:02 24° NW 19:42:02 24° NW
COSMOS 2406 3.4 19:42:40 10° NNW 19:47:56 68° W 19:47:56 68° W
ISS -0.4 19:47:30 10° NNW 19:47:46 11° NNW 19:47:46 11° NNW
Cosmos 2278 Rocket 3.0 19:44:09 10° SSW 19:51:32 44° N 19:55:26 10° NNE
Lacrosse 4 Rocket 3.9 19:51:51 10° NNW 19:52:52 17° NNW 19:52:52 17° NNW
Resurs 01 Rocket 3.6 20:03:26 25° NNW 20:03:26 25° NNW 20:05:20 10° NNW
Cosmos 1833 Rocket 3.6 20:07:49 10° NNW 20:11:54 45° WNW 20:11:54 45° WNW
ATLAS 2AS CENTAUR R/B 4.3 20:17:30 10° WSW 20:24:46 37° NW 20:31:57 10° NNE
ATLAS 3B R/B 3.3 20:24:16 10° NW 20:29:50 53° WNW 20:29:50 53° WNW
Cosmos 2082 Rocket 4.4 21:01:13 10° NW 21:03:08 20° NW 21:03:08 20° NW
